Tracking 26321 objects as of 27-Nov-2022
HD Live streaming from Space Station
objects crossing your sky now

COSMOS 1408 DEB

Track COSMOS 1408 DEB now!
10-day predictions


NORAD ID: 49708
Int'l Code: 1982-092HD
Perigee: 424.8 km
Apogee: 465.8 km
Inclination: 82.6 °
Period: 93.3 minutes
Semi major axis: 6816 km
RCS: Unknown
Launch date: September 16, 1982
Source: Commonwealth of Independent States (former USSR) (CIS)
Launch site: PLESETSK MISSILE AND SPACE COMPLEX (PKMTR)

Note: This is SATELLITE DEBRIS
aabbcc
Your satellite tracking list
Your tracking list is empty




NASA's NSSDC Master Catalog

Two Line Element Set (TLE):
1 49708U 82092HD  22330.83097424  .00011638  00000-0  26145-3 0  9996
2 49708  82.6068 103.8189 0030081 273.5830  86.1977 15.42705605 56565
Source of the keplerian elements: AFSPC